Location: Fahrendorf
(53.4368°N, 9.0804°E)
Time: 03:45:48
(UTC+00:00)

Daily predictions for brighter satellites

Satellite Brightness Start Highest point End
(mag) Time Altitude Azimuth Time Altitude Azimuth Time Altitude Azimuth
CZ-4C R/B 3.3 00:06:34 42° NNW 00:06:45 42° NNW 00:13:09 10° NE
USA 234 3.5 00:01:48 10° E 00:17:12 - WNW 00:07:47 65° NNE
Cosmos 2369 Rocket 3.3 00:10:56 39° N 00:10:56 39° N 00:14:58 10° NNE
ADEOS II 3.9 00:40:16 10° NE 00:44:19 22° E 00:44:28 22° E
Cosmos 2227 Rocket 3.3 00:50:48 10° NNW 00:54:07 37° NNW 00:54:07 37° NNW
Cosmos 2181 Rocket 4.2 00:58:47 63° E 00:58:47 63° E 01:04:39 10° NNE
Cosmos 2341 Rocket 4.4 01:04:22 10° NNW 01:09:22 52° NW 01:09:22 52° NW
USA 267 4.5 01:07:37 10° ENE 01:13:02 27° SE 01:13:06 27° SE
SL-16 R/B 2.9 01:15:09 52° NW 01:15:09 52° NW 01:19:57 10° NNW
SJ 16-02 4.0 01:15:33 10° N 01:18:43 19° NE 01:21:53 10° E
CZ-2D R/B 2.4 01:14:15 10° NNE 01:18:48 64° NE 01:18:48 64° NE
ATLAS 2AS CENTAUR R/B 4.0 01:12:41 10° WNW 01:20:04 42° NNE 01:27:00 10° E
NOSS 2-2 (D) 4.5 01:22:27 69° ESE 01:22:27 69° ESE 01:28:52 10° SE
Meteor 2-2 Rocket 4.4 01:23:14 65° NNW 01:23:14 65° NNW 01:28:21 10° N
Cosmos 1943 Rocket 4.1 01:21:06 17° NW 01:22:37 19° NNW 01:26:35 10° NNE
Resurs 1-4 Rocket 2.3 01:21:23 10° NNE 01:25:56 67° NNE 01:25:56 67° NNE
Lacrosse 5 3.5 01:29:27 26° ESE 01:29:27 26° ESE 01:32:41 10° ENE
ATLAS 5 CENTAUR R/B 2.5 01:30:41 47° NNE 01:30:41 47° NNE 01:34:21 10° NE
Cosmos 2221 4.3 01:31:42 26° NNW 01:31:42 26° NNW 01:33:48 10° N
NPP 3.7 01:25:13 10° NNE 01:30:13 75° NE 01:30:13 75° NE
SL-08 R/B 3.9 01:37:45 52° E 01:37:59 53° ENE 01:42:29 10° N
Cosmos 2297 Rocket 4.0 01:37:39 10° NW 01:39:22 19° NW 01:39:22 19° NW
Cosmos 1818 3.5 01:44:09 81° NNE 01:44:09 81° NNE 01:49:23 10° NE
Cosmos 2082 4.2 01:43:32 10° NW 01:47:38 48° NW 01:47:38 48° NW
AQUA 4.1 01:45:28 10° NNE 01:49:34 64° N 01:49:34 64° N
Timation 1 Rocket 4.3 01:44:16 10° NNW 01:50:18 80° NE 01:56:20 10° SE
Cosmos 1470 Rocket 4.1 01:46:32 10° N 01:50:50 57° ENE 01:50:50 57° ENE
USA 234 3.1 01:44:42 10° ESE 01:51:15 83° SSW 01:55:07 27° WNW
Cosmos 1777 Rocket 4.0 01:48:55 10° NNW 01:53:37 71° NNW 01:53:37 71° NNW
Cosmos 1992 Rocket 4.0 01:54:52 73° NW 01:54:52 73° NW 01:59:53 10° NNE
Cosmos 2369 Rocket 4.2 01:52:43 15° NW 01:54:53 19° NNW 01:58:48 10° NNE
CZ-4C R/B 3.9 01:51:44 13° NW 01:56:47 36° N 02:03:30 10° ENE
Cosmos 1821 Rocket 3.9 01:51:35 10° N 01:57:57 86° E 02:00:05 45° SSE
CZ-4B R/B 3.4 01:53:19 10° NNE 01:58:26 79° ESE 01:58:43 76° SSE
IRS P6 4.5 01:54:47 10° NNE 02:00:02 75° WNW 02:00:03 75° WNW
Cosmos 1697 Rocket 3.0 02:01:35 51° SSE 02:02:35 59° ESE 02:08:06 10° NE
NOSS 2-2 (C) 4.3 02:06:12 64° WSW 02:06:31 65° SW 02:13:47 10° SSE
Cosmos 972 Rocket 4.4 02:05:43 46° SE 02:06:33 52° ESE 02:11:22 10° NNE
SL-24 R/B - RUBIN 2 4.5 02:05:39 60° SW 02:07:02 84° NW 02:13:50 10° NE
Cosmos 1980 Rocket 3.3 02:05:36 28° SSE 02:07:46 38° ESE 02:12:58 10° NE
Cosmos 220 Rocket 4.3 02:08:28 60° N 02:08:28 60° N 02:12:04 10° NNE
Cosmos 1934 Rocket 4.2 02:03:15 10° N 02:09:18 66° ENE 02:15:17 10° SSE
Cosmos 2263 Rocket 2.7 02:04:46 10° NNW 02:10:23 60° NE 02:15:59 10° SE
Cosmos 1933 3.6 02:13:43 66° NNE 02:13:43 66° NNE 02:17:16 10° NNE
Meteor 1-25 Rocket 4.1 02:07:40 10° NNW 02:13:31 77° W 02:14:52 54° S
Cosmos 1515 Rocket 4.4 02:12:56 38° SE 02:14:04 47° E 02:18:21 10° NNE
Cosmos 1602 4.3 02:13:50 10° N 02:16:48 51° N 02:16:48 51° N
Cosmos 1633 Rocket 4.3 02:17:36 10° NNW 02:20:01 29° NW 02:20:01 29° NW
Gbstr 26 Del rocket 4.4 02:18:37 35° W 02:22:22 69° SSW 02:29:54 10° ESE
Cosmos 1328 Rocket 3.4 02:24:02 81° SSW 02:24:14 89° W 02:28:44 10° N
ADEOS II 2.0 02:19:18 10° NNE 02:24:33 71° WNW 02:25:23 60° SW
Cosmos 1500 4.4 02:21:31 10° N 02:25:13 41° ENE 02:28:34 12° SE
CZ-3B R/B 2.1 02:25:23 62° SSE 02:25:23 62° SSE 02:32:45 10° ENE
Celestis-02/Orion 38 4.4 02:20:49 10° SSE 02:26:04 82° WSW 02:31:15 10° NNW
Cosmos 1151 Rocket 2.9 02:26:32 78° WNW 02:26:32 78° WNW 02:30:53 10° N
USA 305 3.5 02:27:21 44° SE 02:27:21 44° SE 02:31:16 10° ENE
Cosmos 1933 Rocket 3.4 02:23:46 10° N 02:28:10 88° E 02:28:51 63° SSE
Cosmos 2227 4.2 02:22:53 10° NNW 02:28:36 79° ENE 02:34:14 10° SE
Nadezhda 3 Rocket 3.8 02:26:57 41° SSW 02:29:16 84° W 02:35:28 10° N
ARIANE 5 R/B 2.6 02:24:19 10° NNE 02:29:27 71° ESE 02:31:22 38° S
USA 306 3.4 02:31:22 46° SSE 02:31:23 46° SSE 02:35:29 10° ENE
Cosmos 1656 3.8 02:32:28 48° W 02:33:33 57° NW 02:39:02 10° NNE
IDEFIX/ARIANE 42P 2.9 02:28:37 10° NNE 02:33:52 63° ESE 02:36:51 26° S
IRS-1D 3.7 02:29:12 10° N 02:34:27 56° WNW 02:35:24 49° WSW
CZ-4C R/B 3.9 02:32:38 15° SE 02:35:24 49° ENE 02:38:51 10° N
Cosmos 1605 Rocket 4.3 02:29:34 10° N 02:35:58 70° ENE 02:42:22 10° SSE
Cosmos 1535 Rocket 4.5 02:30:59 10° NNW 02:37:24 87° W 02:43:49 10° S
Meteor 1-14 Rocket 4.1 02:31:58 10° NNW 02:37:39 83° W 02:42:40 13° S
ASTEX 1 3.5 02:33:41 10° N 02:38:43 78° E 02:41:21 29° S
CZ-2C R/B 4.4 02:34:41 10° NE 02:39:02 27° E 02:43:26 10° SSE
Cosmos 2227 Rocket 4.4 02:35:50 10° NW 02:35:53 10° NW 02:35:53 10° NW
Cosmos 2228 Rocket 3.9 02:39:37 19° SSE 02:42:29 48° E 02:46:45 10° NNE
Meteor 1-5 Rocket 4.4 02:37:18 10° N 02:42:36 65° ENE 02:47:57 10° SSE
CBERS-1 4.3 02:38:39 10° N 02:43:35 50° WNW 02:44:31 44° W
CZ-2D R/B 3.6 02:42:27 10° NNE 02:46:40 75° ESE 02:48:18 37° S
Cosmos 1869 Rocket 4.0 02:43:13 10° N 02:47:33 61° ENE 02:51:50 10° SSE
NOSS 3-4 (A) 4.1 02:41:24 10° NW 02:48:07 68° NE 02:55:36 10° ESE
NOSS 3-4 (C) 4.1 02:41:31 10° NW 02:48:13 68° NE 02:55:42 10° ESE
IRS-1C 4.1 02:45:29 10° NNE 02:50:48 67° WNW 02:52:48 38° SW
USA 267 3.4 02:50:18 10° ENE 02:56:51 69° SSE 03:00:27 29° SW
Cosmos 1238 Rocket 4.0 02:50:43 10° NNW 02:57:20 68° W 03:03:28 10° S
SJ 16-02 1.2 02:53:28 10° NNW 02:57:54 82° WSW 03:02:18 10° SSE
CZ-2C R/B 3.2 02:54:19 10° NNE 02:58:03 59° ESE 03:00:12 24° S
SL-16 R/B 4.3 03:00:15 13° WNW 03:00:15 13° WNW 03:01:44 10° NW
USA 307 3.1 02:57:59 46° SSW 02:58:58 60° SSE 03:03:10 10° ENE
CZ-2D R/B 3.5 02:55:04 10° N 02:59:08 23° NW 03:00:07 21° WNW
Cosmos 1782 2.7 02:59:09 50° SW 03:00:00 67° WNW 03:04:04 10° N
Cosmos 44 3.6 02:59:36 30° SSW 03:01:38 56° SE 03:06:15 10° NE
USA 308 3.0 03:01:02 44° SW 03:02:09 62° SSE 03:06:22 10° ENE
Meteor 1-4 Rocket 4.2 02:59:47 10° SSE 03:02:56 33° E 03:06:08 10° NNE
Cosmos 389 Rocket 2.3 03:02:26 56° SSW 03:03:05 77° WNW 03:06:41 10° N
Cosmos 1606 4.4 03:04:57 20° NW 03:04:57 20° NW 03:07:11 10° NNW
USA 276 2.7 03:04:24 44° SSE 03:04:24 44° SSE 03:07:22 10° ESE
Cosmos 2278 3.7 03:02:25 29° SSW 03:05:29 87° WNW 03:11:15 10° NNE
Resurs 1-4 Rocket 3.6 03:02:09 10° N 03:05:53 20° NW 03:07:01 19° WNW
Cosmos 990 Rocket 3.9 03:00:51 10° NNW 03:06:05 88° ENE 03:11:19 10° SSE
ATLAS CENTAUR R/B 3.7 02:55:41 10° WNW 03:09:22 72° N 03:14:17 10° E
H-2A R/B 2.0 03:06:15 10° S 03:10:39 75° WSW 03:15:10 10° NNW
Lacrosse 5 1.8 03:08:39 34° WSW 03:10:54 85° SSE 03:16:00 10° ENE
ATLAS 2AS CENTAUR R/B 3.1 03:04:25 10° NW 03:12:10 75° NE 03:19:16 10° SE
ERBS 4.2 03:11:03 18° S 03:12:24 23° SE 03:15:06 10° E
Cosmos 2369 3.9 03:11:30 30° WSW 03:14:18 58° NW 03:20:00 10° NNE
ATLAS 5 CENTAUR R/B 3.2 03:12:12 18° WNW 03:14:51 30° NNW 03:19:28 10° NE
SL-08 R/B 4.4 03:16:44 24° W 03:16:44 24° W 03:19:55 10° NW
Meteor 1-11 Rocket 3.8 03:14:38 10° NNW 03:20:31 84° ENE 03:26:13 10° SSE
Cosmos 1339 Rocket 4.4 03:15:55 10° SSW 03:22:12 81° WNW 03:28:26 10° N
Landsat 5 3.7 03:18:53 10° S 03:23:20 58° WSW 03:27:46 10° NNW
ADEOS Rocket 3.2 03:17:54 10° SSE 03:24:34 82° ENE 03:30:35 10° NNW
CZ-4B R/B 2.3 03:22:22 10° SE 03:25:26 49° ENE 03:28:38 10° N
Cosmos 1459 Rocket 4.4 03:22:16 10° N 03:28:23 65° ENE 03:34:23 10° SSE
Cosmos 972 4.3 03:25:30 21° SW 03:28:45 67° WNW 03:33:39 10° NNE
Spot 4 Rocket 4.1 03:24:51 10° N 03:29:54 57° WNW 03:33:39 18° SW
MSX 3.8 03:26:24 10° NNE 03:32:11 72° WNW 03:37:56 10° SSW
ERS-2 2.0 03:29:48 10° S 03:33:27 69° WSW 03:37:08 10° NNW
USA 234 3.7 03:28:54 10° SSE 03:34:51 36° SW 03:40:49 10° WNW
Meteor 1-27 Rocket 4.3 03:30:59 10° S 03:36:51 63° E 03:42:40 10° NNE
COSMO-SKYMED 1 4.4 03:33:16 10° SE 03:37:12 34° ENE 03:41:08 10° N
Cosmos 1689 Rocket 4.3 03:36:53 10° SE 03:39:31 29° ENE 03:42:10 10° N
Cosmos 1536 2.8 03:36:33 10° N 03:40:40 89° E 03:44:44 10° S
Cosmos 1898 Rocket 3.5 03:35:52 10° NNW 03:41:00 57° WSW 03:46:10 10° S
Cosmos 2360 Rocket 4.1 03:36:56 10° SSE 03:41:47 30° ESE 03:46:39 10° NE
X-37B 2.6 03:42:02 15° SSW 03:42:18 15° SSW 03:44:13 10° SSE
IRIDIUM 104 4.4 03:38:31 10° N 03:43:39 58° W 03:48:45 10° SSW
CZ-4C R/B 3.4 03:40:01 10° NW 03:46:36 58° NNE 03:54:24 10° ESE
Cosmos 1697 Rocket 3.5 03:43:21 18° W 03:46:52 36° NW 03:52:03 10° NNE
Cosmos 372 Rocket 4.3 03:43:41 10° NNW 03:48:52 71° ENE 03:53:59 10° SE
Cosmos 1980 Rocket 2.5 03:47:24 17° WSW 03:51:41 51° NW 03:57:13 10° NNE
Cosmos 858 Rocket 4.4 03:46:39 10° NNW 03:51:48 63° WSW 03:56:54 10° S
Cosmos 2278 Rocket 4.2 03:49:02 10° NNW 03:53:56 29° NE 03:58:48 10° E
Cosmos 2263 Rocket 2.8 03:49:06 10° NW 03:54:02 32° WSW 03:58:58 10° SSW
Cosmos 1844 4.0 03:50:25 10° NNW 03:56:01 69° NE 04:01:33 10° SE
Cosmos 921 Rocket 3.1 03:52:49 14° SW 03:56:19 53° WNW 04:00:27 10° NNE
Cosmos 2322 Rocket 2.7 03:52:42 10° SSW 03:58:18 64° ESE 04:03:57 10° NE
USA 32 4.1 03:53:17 10° NNW 03:58:29 60° W 04:03:37 10° S
Cosmos 1844 Rocket 2.8 03:54:44 10° NNW 04:00:25 85° ENE 04:06:06 10° SSE
Cosmos 1500 4.5 03:57:35 10° NW 04:00:33 21° W 04:03:18 11° SW
Cosmos 2173 Rocket 4.0 03:54:46 10° NNW 04:01:06 79° W 04:07:28 10° S
ADEOS II 3.8 04:00:12 10° NNW 04:03:25 17° NW 04:06:19 11° W
COSMOS 2455 4.2 03:58:12 10° NW 04:03:51 39° NNE 04:09:29 10° E
Cosmos 1812 3.3 04:01:20 10° SW 04:04:54 37° WNW 04:08:32 10° N
Cosmos 1707 Rocket 3.5 04:00:58 10° SSW 04:05:18 72° WNW 04:09:41 10° N
Cosmos 1666 3.2 04:02:49 10° NNW 04:06:21 35° W 04:09:50 10° SSW
Cosmos 1937 Rocket 3.7 04:01:54 10° NW 04:06:52 48° WSW 04:11:46 10° S
USA 305 2.9 04:03:31 14° W 04:07:05 88° N 04:11:21 10° E
SL-16 R/B 2.3 04:01:44 10° SSW 04:07:25 84° ESE 04:13:08 10° NNE
ARIANE 5 R/B 3.8 04:04:05 10° N 04:08:07 24° NW 04:11:42 12° WSW
ADEOS 3.8 04:03:40 10° NNE 04:08:55 76° ESE 04:14:09 10° SSW
USA 306 2.9 04:07:32 13° W 04:11:17 87° N 04:15:34 10° E
IDEFIX/ARIANE 42P 3.6 04:08:44 10° N 04:13:08 28° WNW 04:17:32 10° WSW
Cosmos 1125 Rocket 4.4 04:08:18 10° NNW 04:13:31 54° ENE 04:18:40 10° SE
CZ-2C R/B 2.7 04:12:34 10° N 04:17:34 56° WNW 04:22:37 10° SW
Cosmos 1733 Rocket 3.1 04:14:10 10° NNW 04:18:25 53° W 04:22:38 10° S
Cosmos 2061 Rocket 4.1 04:13:49 10° NNW 04:20:17 83° W 04:26:44 10° S
Cosmos 841 Rocket 3.9 04:15:16 10° SSW 04:20:27 69° ESE 04:25:43 10° NNE
Cosmos 2228 Rocket 4.3 04:17:20 10° WSW 04:20:57 24° WNW 04:24:37 10° N
SAR-Lupe-4 3.9 04:19:00 10° S 04:22:27 43° W 04:25:55 10° NNW
SKYMED 2 3.6 04:20:45 10° SSE 04:25:06 88° ENE 04:29:29 10° NNW
Cosmos 44 Rocket 4.4 04:20:37 10° SSW 04:25:07 44° ESE 04:29:46 10° NE
SL-4 R/B 3.7 04:22:56 10° SW 04:27:10 35° SSE 04:31:33 10° E
Cosmos 1763 Rocket 3.6 04:23:58 10° SW 04:29:15 64° WNW 04:34:32 10° NNE
Cosmos 2016 Rocket 3.9 04:25:42 10° NNW 04:31:49 70° W 04:37:51 10° S
CZ-2C R/B 4.4 04:29:34 10° NNW 04:32:08 18° WNW 04:34:42 10° WSW
Cosmos 2219 Rocket 4.5 04:27:35 10° SSE 04:32:21 28° ESE 04:37:09 10° NE
NOSS 3-4 (A) 4.2 04:32:27 10° NW 04:38:58 44° WSW 04:46:07 10° SSE
NOSS 3-4 (C) 4.2 04:32:33 10° NW 04:39:04 45° WSW 04:46:14 10° SSE
